Regional Weather Roundup
Issued by NWS

Home | Current Version | Previous Version | Graphics & Text | Print | Product List | Glossary On
Versions: 1 2 3 4 5 6 7 8 9 10 11 12 13 14 15 16 17 18 19 20 21 22 23 24 25 26 27 28 29 30 31 32 33 34 35 36 37 38 39 40 41 42 43 44 45 46 47 48 49 50
000
ASUS43 KBIS 250210
RWRND

NORTH DAKOTA REGIONAL WEATHER ROUNDUP
NATIONAL WEATHER SERVICE BISMARCK ND
900 PM CDT FRI APR 24 2015

NOTE: "FAIR" INDICATES FEW OR NO CLOUDS BELOW 12,000 FEET WITH NO
SIGNIFICANT WEATHER AND/OR OBSTRUCTIONS TO VISIBILITY.


NDZ001>003-009>011-017-250300-
NORTHWEST NORTH DAKOTA

CITY           SKY/WX    TMP DP  RH WIND       PRES   REMARKS
WILLISTON      PTCLDY    61  33  35 E12       29.61S
MINOT          PTCLDY    53  35  50 NE8       29.67R
MINOT AFB      MOCLDY    55  38  53 E12       29.67R
$$

NDZ018>021-031>035-040>046-250300-
SOUTHWEST NORTH DAKOTA

CITY           SKY/WX    TMP DP  RH WIND       PRES   REMARKS
BISMARCK       CLEAR     56  41  57 E8        29.64R
DICKINSON      CLEAR     54  33  45 E8        29.62R
GARRISON         N/A     56  38  50 E9        29.65R
HETTINGER ARPT CLEAR     51  33  50 E9        29.63R
$$

NDZ004>008-012>016-024-026-027-054-250300-
NORTHEAST NORTH DAKOTA

CITY           SKY/WX    TMP DP  RH WIND       PRES   REMARKS
GRAND FORKS    CLOUDY    49  38  65 SE9       29.78R
GRND FRKS AFB  CLOUDY    49  38  67 S9        29.78R
DEVILS LAKE    CLEAR     48  37  66 E10       29.73R
$$

NDZ022-023-025-028>030-036>039-047>053-250300-
SOUTHEAST NORTH DAKOTA

CITY           SKY/WX    TMP DP  RH WIND       PRES   REMARKS
FARGO          CLOUDY    47  39  74 E12       29.76R
JAMESTOWN      CLOUDY    50  42  74 E14       29.69R
$$



USA.gov is the U.S. government's official web portal to all federal, state and local government web resources and services.